STARLINK-11371, 62879

Orbit data source: Space-Track

STARLINK-11371, 62879 is a payload satellite owned by SpaceX/Seattle (US) in LEO that was launched on Tue, 04 Feb 2025 UTC via an FALCON 9 launch vehicle from the Air Force Eastern Test Range (AFETR). Payload-class satellites include a variety of spacecraft equipped with specific instruments for various scientific and technological missions. These include communications satellites like Starlink; space stations such as the ISS; scientific satellites like the Hubble; Earth observation satellites from companies like Planet Labs, Umbra, and HawkEye 360; GPS; miniature CubeSats for education and research; and military/defense satellites.

Loading next visibility...
Identifier
62879, 2025-024A
Orbit
LEO
Last TLE update
14 hours ago
Origin
Manufacturer
SpaceX/Seattle
Mission
Operational Commercial Communications
Bus & Motor
STARLINK V2M, Unknown motor
Mass
730 kg wet, ~700 kg dry
Launch date (UTC)
2025-02-04 (5 months ago)
Launch vehicle
FALCON 9
Launch site
Air Force Eastern Test Range (AFETR)
Object type
Payload
Rocket body
Debris
Shape & HBR
Box + 2 Pan, 29 m
Radar Cross Section
36.964 m², Large (>1 m²)

Expand to show TLE details & history

TLE from 14 hours ago
0 STARLINK-11371
1 62879U 25024A   25183.23771631  .00139758  00000-0  10734-2 0  9994
2 62879  43.0016 251.4014 0001972 266.6295  93.4348 15.70862695 24477
Epoch: 2025-07-02T05:42Z
TLE epoch observation values (Epoch: 2025-07-02T05:42:18.689Z)
Latitude
0.00006°
Longitude
-114.69811°
Altitude
356.281 km
Speed
7.697 km/s
True Right ascension
16h 45m 36s
True Declination
0° 00' 00"
Sunlit
Object was in full shadow at epoch
Visualization orbit readout
Latitude
5.04813°
Longitude
56.26211°
Altitude
355.398 km
Speed
7.698 km/s
Apparent Right ascension
01h 06m 55s
Apparent Declination
-31° 27' 11"
Sunlit
Object is in daylight
Visualization observer readout
Local Sidereal Time
07:54:08
Azimuth
250.958° W
Elevation
-27.95°
Doppler factor
1
Orbital elements
Apogee altitude
359.74 km
Perigee altitude
357.083 km
Semi-major axis
6,736.549 km
Eccentricity
0.0002
Inclination
43.0016°
RAAN
251.4014°
Arg. of periapsis
266.6295°
True anomaly
Unknown
Mean anomaly
93.4348°
Eccentric anomaly
Unknown
Mean motion
3.92543 °/min
Orbital period
91.71 mins
BSTAR
0.0010734
Loading maneuver chart data...
Loading SW <> Apogee altitude chart data...
Loading historical data...
Loading historical data...
Loading historical data...
Loading historical data...
Loading historical data...
Loading historical data...
Loading historical data...

STARLINK-11371 Visibility forecast

Observer location: undefined°, undefined°

Span
Click to sort rows by Start time (UTC) header in descending order
Start Az.
Max El. time (UTC)
Max El. Az.
Max El.
End time (UTC)
End Az.
4 mins2025-07-03 07:52:09.444Z214.19° SW2025-07-03 07:54:09.444Z145.671° SSE31.029°2025-07-03 07:56:09.444Z88.4° E
4 mins2025-07-03 11:05:09.444Z307.334° NW2025-07-03 11:06:09.444Z349.263° N35.497°2025-07-03 11:09:09.444Z82.276° E
4 mins2025-07-03 12:41:09.444Z273.063° WNW2025-07-03 12:42:09.444Z239.768° WSW38.12°2025-07-03 12:45:09.444Z124.501° SE
|